[[{"header":{"parameterUnit":"m.s-1","parameterCategory":1,"la1":30.2991,"la2":30.254,"lo1":-89.0895,"lo2":-89.0444,"dy":0.0017,"dx":0.0017,"nx":28,"ny":28,"refTime":"2023-07-22T03:00:00:Z","depth":0,"parameterNumber":2,"parameterNumberName":"U-component_of_WINDS"},"data":[0,0,0,0,0,0,0,0,0,0,0,0,0,0,0,0,0,0,0,0,0,0,0,0,0,0,0,0,0,0,0,0,0,0,0,0,0,0,0,0,0,0,0,0,0,0,0,0,0,0,0,0,0,0,0,0,0,0,1.3451,1.3452,0,1.3563,1.3565,1.3566,1.3601,1.36,1.36,1.3599,1.3717,1.3721,1.3724,0,0,0,0,0,0,0,0,0,0,0,0,0,1.3267,1.327,1.3451,1.3452,1.3453,1.3563,1.3565,1.3566,1.3601,1.36,1.36,1.3599,1.3716,1.372,1.3725,0,0,0,0,0,0,0,0,0,0,0,0,0,1.336,1.3271,1.345,1.3484,1.3488,1.3563,1.3565,1.3567,1.3601,1.36,1.3599,1.3599,1.3715,1.372,1.3725,1.3775,0,0,1.3742,1.3744,0,0,0,0,0,0,0,0,1.3355,1.3367,1.3478,1.3482,1.3487,1.3567,1.3543,1.3637,1.3601,1.3558,1.3599,1.3598,1.3668,1.3677,1.37,1.3781,1.3786,1.3742,1.3746,1.3748,1.375,0,0,0,0,0,0,0,1.3348,1.3362,1.3495,1.3479,1.3485,1.3494,1.3506,1.3561,1.3617,1.3562,1.3565,1.3577,1.367,1.3695,1.3703,1.3788,1.3742,1.3747,1.3751,1.3753,1.3913,1.3914,0,0,0,0,0,0,1.3336,1.3357,1.3492,1.3499,1.3417,1.3498,1.3512,1.3542,1.3616,1.3626,1.3578,1.3579,1.3686,1.3697,1.3708,1.377,1.3748,1.3753,1.3756,1.3912,1.3914,1.3915,0,0,0,0,0,0,1.3332,1.3348,1.3487,1.3428,1.3447,1.3502,1.3536,1.3545,1.3569,1.3628,1.3638,1.3593,1.3686,1.37,1.3758,1.3775,1.3756,1.3761,1.3911,1.3913,1.3914,1.3896,0,0,0,0,0,0,1.3326,1.3346,1.3365,1.3429,1.345,1.3535,1.3537,1.3548,1.3578,1.358,1.3645,1.3655,1.3686,1.3749,1.3763,1.3782,1.3765,1.391,1.3912,1.3914,1.3895,1.3896,1.3897,0,0,0,0,0,1.332,1.3356,1.3366,1.3382,1.3475,1.3536,1.3548,1.3583,1.358,1.36,1.3637,1.3653,1.377,1.3755,1.3771,1.3791,1.3909,1.3911,1.3914,1.3894,1.3896,1.3897,0,0,0,0,0,0,1.3295,1.3365,1.3377,1.3435,1.3479,1.3542,1.3568,1.3584,1.363,1.363,1.3672,1.3687,1.3741,1.3772,1.3754,1.3843,1.384,1.3846,1.382,1.3822,1.3824,1.3815,1.3769,0,0,0,0,0,1.3296,1.3339,1.3399,1.3444,1.3465,1.3513,1.3541,1.3563,1.3611,1.363,1.3672,1.3718,1.3765,1.3796,1.3843,1.39,1.3914,1.3922,1.3923,1.3923,1.3927,1.3958,1.3962,1.3922,1.3922,1.3922,0,0,1.3299,1.3343,1.3368,1.344,1.3477,1.352,1.3528,1.3574,1.3607,1.3637,1.3694,1.3726,1.378,1.3837,1.3865,1.3865,1.3942,1.3926,1.3926,1.393,1.3961,1.3965,1.3968,1.3924,1.3923,1.3923,0,0,1.3327,1.3365,1.3406,1.3442,1.3497,1.3528,1.3538,1.3598,1.362,1.3677,1.37,1.374,1.3821,1.3858,1.3888,1.3928,1.3944,1.3942,1.3948,1.3978,1.3981,1.3984,1.3997,1.4002,1.3946,1.3946,1.3946,0,1.3324,1.339,1.3426,1.347,1.3501,1.3529,1.3571,1.3605,1.3673,1.3693,1.3693,1.3793,1.3832,1.3898,1.3907,1.393,1.3943,1.3935,1.3978,1.3981,1.3985,1.3998,1.4003,1.3946,1.3946,1.3946,1.3946,0,1.3383,1.3428,1.3455,1.3518,1.3552,1.3596,1.3638,1.3668,1.3687,1.3718,1.3776,1.3823,1.3879,1.3896,1.3917,1.3964,1.3963,1.3969,1.3968,1.3987,1.4,1.4005,1.3945,1.3945,1.3945,1.3945,0,0,1.3399,1.348,1.3489,1.3517,1.358,1.3616,1.366,1.3713,1.3738,1.3784,1.3821,1.3888,1.3894,1.3928,1.3953,1.3979,1.4006,1.3982,1.3984,1.3984,1.406,1.4054,1.4059,1.4016,1.4018,1.4019,1.4055,0,1.3433,1.3512,1.3545,1.3609,1.365,1.3677,1.3716,1.3758,1.3788,1.3828,1.3862,1.3908,1.3913,1.3933,1.396,1.3996,1.4021,1.3995,1.4052,1.4053,1.4036,1.4066,1.406,1.4092,1.406,1.4061,1.4062,0,1.3484,1.3529,1.3596,1.3652,1.3671,1.3704,1.3756,1.3794,1.3842,1.3862,1.3898,1.3921,1.3968,1.3963,1.4029,1.401,1.4035,1.4056,1.4058,1.4065,1.4058,1.4072,1.4103,1.4108,1.407,1.407,1.4069,0,1.3487,1.3564,1.3614,1.3638,1.3705,1.3727,1.3756,1.3804,1.3833,1.3879,1.3898,1.3949,1.3976,1.4014,1.405,1.4044,1.4111,1.411,1.4129,1.4128,1.4142,1.414,1.4177,1.4159,1.4159,1.4159,1.4159,0,1.3522,1.3562,1.3616,1.3647,1.3692,1.3729,1.3773,1.3804,1.3846,1.3883,1.391,1.3945,1.399,1.403,1.4059,1.4108,1.412,1.4137,1.4144,1.4135,1.4132,1.4151,1.415,1.4161,1.416,1.416,1.416,0,1.3533,1.3571,1.3627,1.3685,1.37,1.3731,1.3781,1.3811,1.3842,1.3889,1.3902,1.395,1.3999,1.4038,1.4102,1.4121,1.4172,1.4181,1.4155,1.4159,1.4175,1.4173,1.4225,1.4233,1.421,1.4211,1.4211,0,1.3552,1.3583,1.3644,1.367,1.3698,1.3741,1.3771,1.3809,1.3839,1.3896,1.3919,1.3969,1.4012,1.4088,1.4129,1.4178,1.4187,1.4202,1.4195,1.4183,1.4186,1.4183,1.4186,1.4202,1.4202,1.4202,1.4202,0,1.3582,1.3598,1.364,1.3689,1.3724,1.3764,1.3805,1.3825,1.387,1.3903,1.3952,1.3984,1.4049,1.4098,1.4151,1.4181,1.4199,1.4204,1.4211,1.4201,1.4185,1.4193,1.4156,1.4203,1.4203,1.4203,1.4203,1.4203,1.3597,1.3625,1.3672,1.3717,1.3752,1.3789,1.382,1.3854,1.3896,1.395,1.397,1.4021,1.4067,1.414,1.417,1.421,1.4212,1.4222,1.4225,1.4226,1.4225,1.4178,1.422,1.422,1.422,1.422,1.422,0,1.3627,1.3658,1.3699,1.3755,1.3791,1.3804,1.3849,1.3878,1.3922,1.3964,1.4004,1.406,1.4108,1.4152,1.4202,1.4225,1.4234,1.4237,1.4235,1.4242,1.4221,1.4209,1.4228,1.4228,1.4228,1.4228,1.4228,1.4228,1.3647,1.3695,1.3717,1.3782,1.3814,1.3862,1.3887,1.3921,1.3955,1.4016,1.4055,1.4083,1.4126,1.4179,1.4223,1.4235,1.4251,1.4251,1.4265,1.4245,1.4243,1.4242,1.4231,1.4255,1.4255,1.4283,1.4283,1.4283]},{"header":{"parameterUnit":"m.s-1","parameterCategory":1,"la1":30.2991,"la2":30.254,"lo1":-89.0895,"lo2":-89.0444,"dy":0.0017,"dx":0.0017,"nx":28,"ny":28,"refTime":"2023-07-22T03:00:00:Z","depth":0,"parameterNumber":3,"parameterNumberName":"V-component_of_WINDS"},"data":[0,0,0,0,0,0,0,0,0,0,0,0,0,0,0,0,0,0,0,0,0,0,0,0,0,0,0,0,0,0,0,0,0,0,0,0,0,0,0,0,0,0,0,0,0,0,0,0,0,0,0,0,0,0,0,0,0,0,7.4228,7.4229,0,7.432,7.4321,7.4322,7.4316,7.4315,7.4314,7.4313,7.4396,7.4399,7.4403,0,0,0,0,0,0,0,0,0,0,0,0,0,7.4036,7.4039,7.4228,7.4229,7.423,7.432,7.4321,7.4322,7.4317,7.4315,7.4314,7.4312,7.4395,7.4399,7.4403,0,0,0,0,0,0,0,0,0,0,0,0,0,7.4122,7.4041,7.4228,7.4239,7.424,7.4319,7.4321,7.4322,7.4317,7.4315,7.4313,7.4311,7.4393,7.4398,7.4403,7.4474,0,0,7.4419,7.4421,0,0,0,0,0,0,0,0,7.4117,7.4129,7.4236,7.4238,7.424,7.4305,7.4284,7.4373,7.4318,7.4288,7.4313,7.431,7.4366,7.4374,7.4395,7.4478,7.4482,7.442,7.4423,7.4425,7.4426,0,0,0,0,0,0,0,7.4111,7.4125,7.4264,7.4237,7.424,7.4235,7.4245,7.4301,7.4336,7.429,7.429,7.4301,7.4367,7.439,7.4397,7.4483,7.4419,7.4424,7.4427,7.4429,7.4626,7.4628,0,0,0,0,0,0,7.4105,7.412,7.4261,7.4267,7.4173,7.424,7.4251,7.4286,7.4336,7.4342,7.4303,7.4301,7.4382,7.4391,7.44,7.4484,7.4425,7.443,7.4433,7.4624,7.4626,7.4629,0,0,0,0,0,0,7.4101,7.4117,7.4257,7.4194,7.4211,7.4246,7.4284,7.4289,7.4312,7.4346,7.4351,7.4321,7.4381,7.4392,7.4456,7.4487,7.4432,7.4437,7.4621,7.4624,7.4627,7.4654,0,0,0,0,0,0,7.4095,7.4116,7.4146,7.4195,7.4215,7.4316,7.4286,7.4292,7.4322,7.432,7.4364,7.4369,7.438,7.4448,7.4461,7.4493,7.4441,7.4618,7.4623,7.4626,7.4651,7.4658,7.4664,0,0,0,0,0,7.4088,7.4148,7.4148,7.4165,7.4254,7.4317,7.4328,7.4343,7.4324,7.4353,7.4374,7.4367,7.4482,7.4455,7.4469,7.4503,7.4616,7.4621,7.4626,7.4648,7.4657,7.4664,0,0,0,0,0,0,7.4098,7.4155,7.4155,7.4233,7.4271,7.4317,7.4353,7.4353,7.4394,7.439,7.4404,7.4413,7.4477,7.4496,7.4465,7.4573,7.4546,7.4554,7.4558,7.4566,7.4573,7.4566,7.4445,0,0,0,0,0,7.411,7.4161,7.4206,7.427,7.429,7.4318,7.4347,7.4355,7.4393,7.4408,7.4435,7.4469,7.4513,7.4541,7.4583,7.4654,7.4662,7.4684,7.4691,7.4696,7.4702,7.4738,7.4748,7.4644,7.4644,7.4644,0,0,7.4134,7.4171,7.4202,7.4273,7.4304,7.4352,7.4332,7.4384,7.4419,7.4415,7.4477,7.4498,7.4537,7.4604,7.4635,7.4622,7.4733,7.4702,7.4706,7.4709,7.4744,7.4754,7.4763,7.4648,7.4647,7.4647,0,0,7.4202,7.4237,7.4293,7.4325,7.4373,7.4391,7.4405,7.4451,7.4465,7.4529,7.4526,7.4566,7.4642,7.4669,7.4693,7.4771,7.4764,7.4784,7.4818,7.4853,7.4861,7.4869,7.4894,7.4903,7.479,7.479,7.479,0,7.4224,7.4302,7.4321,7.4375,7.4405,7.4407,7.4462,7.449,7.4548,7.4566,7.4553,7.4647,7.4673,7.4746,7.4765,7.4785,7.4798,7.4778,7.486,7.4867,7.4874,7.4898,7.4908,7.4792,7.4792,7.4791,7.4791,0,7.4325,7.4378,7.4417,7.4477,7.4511,7.4565,7.4589,7.4621,7.4626,7.4645,7.4707,7.474,7.4787,7.4806,7.481,7.4878,7.4869,7.4857,7.483,7.4885,7.4908,7.4918,7.4795,7.4794,7.4793,7.4793,0,0,7.44,7.4471,7.4485,7.4511,7.4564,7.4603,7.4655,7.4706,7.4731,7.4771,7.4812,7.4876,7.4866,7.4893,7.49,7.4932,7.4988,7.4916,7.4917,7.4926,7.5062,7.5069,7.508,7.4986,7.4988,7.4989,7.5058,0,7.4472,7.4569,7.4588,7.4671,7.4718,7.4721,7.4766,7.4801,7.482,7.486,7.4879,7.4923,7.4908,7.4924,7.4955,7.4975,7.5015,7.497,7.5021,7.5022,7.5009,7.5092,7.51,7.5163,7.5067,7.5069,7.507,0,7.4568,7.4614,7.4702,7.4748,7.4768,7.4809,7.4856,7.4895,7.4934,7.4945,7.4975,7.4979,7.503,7.5002,7.507,7.5039,7.506,7.5073,7.5076,7.5079,7.5048,7.5095,7.5184,7.5193,7.5085,7.5083,7.5082,0,7.4611,7.4694,7.4757,7.478,7.4835,7.4864,7.4887,7.4924,7.4953,7.4992,7.501,7.5054,7.5077,7.5109,7.5124,7.5103,7.5189,7.5164,7.5197,7.5196,7.5213,7.5211,7.5304,7.5231,7.523,7.523,7.523,0,7.4688,7.4741,7.4778,7.4816,7.4875,7.4895,7.4951,7.4973,7.5006,7.5046,7.505,7.5087,7.5105,7.5143,7.5154,7.5207,7.5218,7.5225,7.5227,7.5224,7.5223,7.5236,7.5231,7.5233,7.5232,7.5232,7.5231,0,7.4745,7.4772,7.4841,7.4889,7.4902,7.4943,7.4981,7.5017,7.5036,7.5087,7.5099,7.5128,7.5173,7.5191,7.5246,7.5253,7.5313,7.5313,7.5301,7.5301,7.5332,7.5328,7.5436,7.545,7.5369,7.537,7.537,0,7.4791,7.4832,7.4886,7.4915,7.494,7.4987,7.5017,7.5037,7.5067,7.5114,7.5143,7.5189,7.5227,7.5298,7.5321,7.5363,7.5361,7.5396,7.5367,7.5362,7.5359,7.5356,7.5359,7.5401,7.5402,7.5402,7.5403,0,7.4869,7.488,7.4926,7.4976,7.5012,7.5051,7.5089,7.5112,7.5137,7.517,7.5219,7.5248,7.5305,7.535,7.5392,7.5412,7.541,7.5412,7.5422,7.5417,7.5408,7.5412,7.5313,7.5409,7.5408,7.5408,7.5408,7.5407,7.492,7.4956,7.5,7.505,7.5081,7.5117,7.5152,7.5177,7.5219,7.5269,7.5278,7.5328,7.5363,7.5421,7.5443,7.548,7.5471,7.5485,7.5488,7.5491,7.5492,7.5405,7.5488,7.5488,7.5488,7.5488,7.5488,0,7.4996,7.5025,7.5071,7.5125,7.5163,7.5164,7.5205,7.5236,7.5282,7.5317,7.5355,7.5409,7.5452,7.5479,7.5522,7.5546,7.5546,7.5556,7.5553,7.5558,7.5499,7.5486,7.5556,7.5556,7.5556,7.5556,7.5556,7.5555,7.504,7.5101,7.5118,7.5194,7.5221,7.5274,7.5297,7.5328,7.5357,7.5418,7.5456,7.5475,7.5505,7.555,7.5588,7.5595,7.5609,7.562,7.5625,7.5569,7.5562,7.5555,7.5543,7.5623,7.5623,7.568,7.5681,7.5681]}]]